Galesburg, IL

7:38 AM CDT on September 29, 2016 (GMT -0500)
Galesburg Municipal

Weather History for KGBG - September, 2013

Change the Weather History Date:

Friday, September 20, 2013

  Actual Average Record
Temperature  
Mean Temperature 62 °F -  
Max Temperature 70 °F 73 °F 89 °F (2007)
Min Temperature 54 °F 53 °F 32 °F (1991)
Degree Days  
Heating Degree Days 3    
Growing Degree Days 12 (Base 50)    
Moisture  
Dew Point 58 °F    
Average Humidity 83    
Maximum Humidity 100    
Minimum Humidity 52    
Precipitation  
Precipitation 0.05 in - - ()
Sea Level Pressure  
Sea Level Pressure 29.89 in    
Wind  
Wind Speed 8 mph (West)    
Max Wind Speed 15 mph    
Max Gust Speed 21 mph    
Visibility 10 miles    
Events Rain    
Averages and records for this station are not official NWS values.
T = Trace of Precipitation, MM = Missing Value Source: NWS Daily Summary

Daily Weather History Graph

Daily Weather History Graph

Search for Another Location

Airport or City:

Trip Planner

Search our weather history database for the weather conditions in past years. The results will help you decide how hot, cold, wet, or windy it might be!

Date:

Astronomy

Sep. 20, 2013 Rise Set
Actual Time 6:47 AM CDT 7:01 PM CDT
Civil Twilight 6:20 AM CDT 7:29 PM CDT
Nautical Twilight 5:47 AM CDT 8:01 PM CDT
Astronomical Twilight 5:14 AM CDT 8:34 PM CDT
Moon 7:34 PM CDT (9/20) 8:03 AM CDT (9/20)
Length of Visible Light 13h 09m
Length of Day
12h 14m
Full, 98% of the Moon is Illuminated
Sep 20
Full
Sep 26
Last Quarter
Oct 4
New
Oct 11
First Quarter
Oct 18
Full

Hourly Weather History & Observations

Time (CDT) Temp. Dew Point Humidity Pressure Visibility Wind Dir Wind Speed Gust Speed Precip Events Conditions
12:15 AM 66.2 °F 66.2 °F 100% 29.86 in 10.0 mi SE 5.8 mph - 0.02 in Rain Light Rain
12:35 AM 66.2 °F 66.2 °F 100% 29.84 in 10.0 mi East 3.5 mph - 0.04 in Rain Light Rain
12:55 AM 66.2 °F 66.2 °F 100% 29.85 in 10.0 mi West 8.1 mph - 0.04 in   Scattered Clouds
1:15 AM 66.2 °F 66.2 °F 100% 29.86 in 10.0 mi WSW 4.6 mph - N/A   Clear
1:35 AM 65.8 °F 65.8 °F 100% 29.87 in 10.0 mi SSW 5.8 mph - N/A   Clear
1:55 AM 65.7 °F 65.7 °F 100% 29.86 in 10.0 mi SSW 6.9 mph - N/A   Scattered Clouds
2:15 AM 65.7 °F 65.7 °F 100% 29.85 in 10.0 mi SSW 6.9 mph - N/A   Clear
2:35 AM 65.5 °F 65.5 °F 100% 29.85 in 10.0 mi SW 9.2 mph - N/A   Clear
2:55 AM 65.3 °F 65.3 °F 100% 29.84 in 10.0 mi SSW 6.9 mph - N/A   Clear
3:15 AM 65.3 °F 65.3 °F 100% 29.84 in 10.0 mi SW 6.9 mph - N/A   Clear
3:35 AM 65.3 °F 65.3 °F 100% 29.84 in 10.0 mi SW 8.1 mph - N/A   Scattered Clouds
3:55 AM 65.7 °F 65.7 °F 100% 29.86 in 10.0 mi SW 6.9 mph - N/A   Mostly Cloudy
4:15 AM 66.2 °F 66.2 °F 100% 29.86 in 10.0 mi SSW 6.9 mph - N/A   Overcast
4:35 AM 65.8 °F 65.8 °F 100% 29.85 in 10.0 mi SSW 4.6 mph - N/A   Overcast
4:55 AM 66.0 °F 66.0 °F 100% 29.86 in 10.0 mi SSW 6.9 mph - N/A   Overcast
5:15 AM 66.2 °F 66.2 °F 100% 29.86 in 10.0 mi South 9.2 mph - N/A   Overcast
5:35 AM 66.2 °F 66.2 °F 100% 29.87 in 10.0 mi SSW 8.1 mph - N/A   Overcast
5:55 AM 66.2 °F 66.2 °F 100% 29.87 in 10.0 mi SW 6.9 mph - N/A   Overcast
6:15 AM 66.4 °F 66.4 °F 100% 29.87 in 10.0 mi SW 5.8 mph - N/A   Overcast
6:35 AM 66.6 °F 66.6 °F 100% 29.87 in 10.0 mi WSW 3.5 mph - N/A   Overcast
6:55 AM 66.6 °F 66.6 °F 100% 29.87 in 7.0 mi West 5.8 mph - N/A   Overcast
7:15 AM 66.2 °F 66.2 °F 100% 29.87 in 3.0 mi West 5.8 mph - N/A   Light Drizzle
7:35 AM 66.2 °F 66.2 °F 100% 29.88 in 7.0 mi West 6.9 mph - 0.01 in   Overcast
7:55 AM 66.2 °F 66.2 °F 100% 29.89 in 7.0 mi West 6.9 mph - 0.01 in   Overcast
8:15 AM 66.2 °F 66.2 °F 100% 29.89 in 10.0 mi WNW 6.9 mph - N/A   Overcast
8:35 AM 66.0 °F 64.0 °F 93% 29.90 in 10.0 mi West 9.2 mph - N/A   Overcast
8:55 AM 64.2 °F 59.9 °F 86% 29.90 in 10.0 mi NW 11.5 mph 19.6 mph N/A   Overcast
9:15 AM 63.5 °F 59.2 °F 86% 29.90 in 10.0 mi WNW 11.5 mph 18.4 mph N/A   Overcast
9:35 AM 63.7 °F 59.7 °F 87% 29.91 in 10.0 mi WNW 12.7 mph - N/A   Scattered Clouds
9:55 AM 63.5 °F 58.8 °F 85% 29.92 in 10.0 mi WNW 9.2 mph 18.4 mph N/A   Clear
10:15 AM 63.9 °F 59.2 °F 85% 29.92 in 10.0 mi NW 10.4 mph 17.3 mph N/A   Scattered Clouds
10:35 AM 63.9 °F 58.5 °F 83% 29.91 in 10.0 mi WNW 10.4 mph - N/A   Clear
10:55 AM 64.4 °F 58.8 °F 82% 29.91 in 10.0 mi WNW 10.4 mph 16.1 mph N/A   Clear
11:15 AM 64.4 °F 58.3 °F 80% 29.91 in 10.0 mi WNW 11.5 mph - N/A   Clear
11:35 AM 65.3 °F 57.9 °F 77% 29.91 in 10.0 mi WNW 11.5 mph 17.3 mph N/A   Clear
11:55 AM 65.8 °F 57.9 °F 76% 29.91 in 10.0 mi WNW 11.5 mph 16.1 mph N/A   Clear
12:15 PM 67.1 °F 56.5 °F 69% 29.91 in 10.0 mi NW 10.4 mph 17.3 mph N/A   Scattered Clouds
12:35 PM 66.6 °F 54.9 °F 66% 29.91 in 10.0 mi WNW 13.8 mph - N/A   Scattered Clouds
12:55 PM 66.6 °F 55.4 °F 67% 29.91 in 10.0 mi West 10.4 mph - N/A   Clear
1:15 PM 66.6 °F 55.4 °F 67% 29.90 in 10.0 mi West 11.5 mph - N/A   Clear
1:35 PM 67.1 °F 54.7 °F 64% 29.90 in 10.0 mi West 10.4 mph - N/A   Clear
1:55 PM 67.6 °F 54.5 °F 63% 29.89 in 10.0 mi West 10.4 mph - N/A   Clear
2:15 PM 69.3 °F 54.3 °F 59% 29.89 in 10.0 mi West 11.5 mph 17.3 mph N/A   Clear
2:35 PM 69.6 °F 54.0 °F 57% 29.89 in 10.0 mi West 11.5 mph 18.4 mph N/A   Clear
2:55 PM 70.0 °F 51.4 °F 52% 29.89 in 10.0 mi West 13.8 mph 20.7 mph N/A   Clear
3:15 PM 69.6 °F 51.6 °F 53% 29.89 in 10.0 mi West 15.0 mph 19.6 mph N/A   Clear
3:35 PM 69.3 °F 51.3 °F 53% 29.89 in 10.0 mi West 15.0 mph 20.7 mph N/A   Clear
3:55 PM 68.7 °F 51.8 °F 55% 29.89 in 10.0 mi WNW 15.0 mph 20.7 mph N/A   Clear
4:15 PM 67.5 °F 50.9 °F 55% 29.89 in 10.0 mi West 13.8 mph - N/A   Clear
4:35 PM 67.3 °F 51.1 °F 56% 29.89 in 10.0 mi West 15.0 mph 18.4 mph N/A   Clear
4:55 PM 65.8 °F 50.0 °F 57% 29.90 in 10.0 mi WNW 11.5 mph 18.4 mph N/A   Clear
5:15 PM 65.5 °F 51.1 °F 60% 29.90 in 10.0 mi WNW 10.4 mph 16.1 mph N/A   Clear
5:35 PM 65.1 °F 51.6 °F 62% 29.89 in 10.0 mi WNW 8.1 mph 16.1 mph N/A   Clear
5:55 PM 64.4 °F 51.8 °F 64% 29.90 in 10.0 mi WNW 6.9 mph - N/A   Clear
6:15 PM 63.5 °F 52.5 °F 67% 29.90 in 10.0 mi WNW 5.8 mph - N/A   Clear
6:35 PM 61.9 °F 53.1 °F 73% 29.90 in 10.0 mi WNW 4.6 mph - N/A   Scattered Clouds
6:55 PM 60.8 °F 53.1 °F 76% 29.90 in 10.0 mi NW 6.9 mph - N/A   Scattered Clouds
7:15 PM 59.5 °F 53.1 °F 79% 29.91 in 10.0 mi WNW 5.8 mph - N/A   Scattered Clouds
7:35 PM 59.9 °F 52.7 °F 77% 29.91 in 10.0 mi WNW 6.9 mph - N/A   Mostly Cloudy
7:55 PM 60.4 °F 52.7 °F 76% 29.91 in 10.0 mi West 4.6 mph - N/A   Overcast
8:15 PM 60.3 °F 53.1 °F 77% 29.91 in 10.0 mi WNW 5.8 mph - N/A   Overcast
8:35 PM 60.3 °F 52.9 °F 77% 29.91 in 10.0 mi WNW 4.6 mph - N/A   Overcast
8:55 PM 59.2 °F 53.1 °F 80% 29.91 in 10.0 mi WNW 4.6 mph - N/A   Overcast
9:15 PM 58.1 °F 53.6 °F 85% 29.91 in 10.0 mi WNW 3.5 mph - N/A   Overcast
9:35 PM 57.6 °F 53.6 °F 87% 29.91 in 10.0 mi West 3.5 mph - N/A   Overcast
9:55 PM 56.3 °F 53.2 °F 89% 29.92 in 10.0 mi West 4.6 mph - N/A   Scattered Clouds
10:15 PM 55.6 °F 53.1 °F 91% 29.92 in 10.0 mi West 4.6 mph - N/A   Scattered Clouds
10:35 PM 55.0 °F 52.7 °F 92% 29.92 in 10.0 mi West 4.6 mph - N/A   Scattered Clouds
10:55 PM 54.5 °F 52.2 °F 92% 29.92 in 10.0 mi West 5.8 mph - N/A   Clear
11:15 PM 54.1 °F 52.2 °F 93% 29.92 in 10.0 mi West 5.8 mph - N/A   Clear
11:35 PM 54.1 °F 52.0 °F 92% 29.92 in 10.0 mi West 5.8 mph - N/A   Clear
11:55 PM 54.0 °F 51.8 °F 92% 29.92 in 10.0 mi WNW 5.8 mph - N/A   Clear